Location: Central Falls
(41.8900°N, 71.3929°W)
Time: 04:46:10
(UTC+00:00)

Tiros 1 - Pass Details

Date: 10 December 2023
Orbit: 625 x 658 km, 48.4° (Epoch: 01 March)

Event Time Altitude Azimuth Distance (km) Brightness Sun altitude
Rises 09:46:24 0° 282° (WNW) 2,980 - -24.4°
Reaches altitude 10° 09:48:54 10° 291° (WNW) 2,072 - -24.0°
Exits shadow 09:53:11 37° 354° (N) 1,023 8.0 -23.2°
Maximum altitude 09:53:21 37° 359° (N) 1,021 8.0 -23.2°
Drops below altitude 10° 09:57:48 10° 67° (ENE) 2,074 10.5 -22.3°
Sets 10:00:18 0° 76° (ENE) 2,984 11.7 -21.9°
